{"data":{"norad_id":47733,"intl_designator":"2021-017M","name":"STARLINK-2143","alt_names":[],"object_type":"PAYLOAD","status":"ACTIVE","operator":null,"country":"US","launch_date":"2021-03-04","launch_site_code":"AFETR","launch_vehicle":null,"mission":null,"orbit_class":"UNKNOWN","rcs_meters":null,"size_class":null,"mass_kg":null,"dimensions":null,"purposes":["comms"],"wikipedia_slug":null,"has_3d_model":false,"image_url":null,"decayed_at":null,"tle_current":{"epoch":"2026-09-19T23:15:26.093664Z","epoch_age_seconds":71563,"freshness":"FRESH","line1":"1 47733U 21017M   26262.96905201 -.00000836  00000+0 -15181-4 0  9993","line2":"2 47733  53.1616  32.5501 0001058  89.9592 270.1530 15.31698905307487","mean_motion":15.31698905,"eccentricity":0.0001058,"inclination_deg":53.1616,"raan_deg":32.5501,"arg_perigee_deg":89.9592,"mean_anomaly_deg":270.153,"bstar":-1.5181e-5,"rev_number":30748,"period_min":94.013255170408,"perigee_km":470.01864783417,"apogee_km":471.46787089705,"semimajor_km":6848.8802593656,"source":"CELESTRAK","updated_at":"2026-09-20T09:00:38.600225Z"}}}